Location: Fort Worth, Tx
(32.7431°N, 97.3695°W)
Time: 21:15:55
(UTC-04:00)

Vanguard 1 Rocket - Pass Details

Date: 21 September 2024
Orbit: 650 x 4218 km, 34.3° (Epoch: 11 October)

Event Time Altitude Azimuth Distance (km) Brightness Sun altitude
Exits shadow 06:16:02 36° 268° (W) 3,313 9.7 -25.9°
Maximum altitude 06:24:05 86° 356° (N) 2,990 9.8 -24.3°
Drops below altitude 10° 06:48:33 10° 87° (E) 7,341 13.2 -19.3°
Sets 06:54:41 0° 88° (E) 8,462 13.9 -18.1°
